FW6591 Weather Reports


Display with metric or nautical units.
time (UTC)temp
F
wind
direction
speed
MPH
gust
MPH
rain 1hr
in
rain 24hr
in
rain mn
in
humidity
%
barometer
mb
20260509114552 70 329 14.0 23.0 0.00 0.00 0.00 31 1014.0
20260509113054 70 314 12.0 22.0 0.00 0.00 0.00 33 1014.2
20260509111542 70 360 10.0 16.0 0.00 0.00 0.00 34 1014.3
20260509110040 69 315 11.0 17.0 0.00 0.00 0.00 34 1014.6
20260509104547 69 352 7.0 20.0 0.00 0.00 0.00 37 1015.1
20260509103058 68 352 8.0 18.0 0.00 0.00 0.00 39 1015.4
20260509101559 69 306 7.0 18.0 0.00 0.00 0.00 37 1015.8
20260509100044 68 323 6.0 18.0 0.00 0.00 0.00 37 1016.0
20260509094556 67 351 10.0 20.0 0.00 0.00 0.00 37 1016.3
20260509093049 66 360 11.0 19.0 0.00 0.00 0.00 38 1016.6
20260509091544 66 325 9.0 20.0 0.00 0.00 0.00 40 1016.9
20260509090052 65 316 9.0 19.0 0.00 0.00 0.00 41 1017.3
20260509084546 65 309 9.0 18.0 0.00 0.00 0.00 41 1017.8
20260509083053 64 30 7.0 15.0 0.00 0.00 0.00 44 1017.9
20260509081535 63 9 5.0 11.0 0.00 0.00 0.00 46 1018.2
20260509080048 63 38 2.0 12.0 0.00 0.00 0.00 49 1018.3
20260509074546 62 44 3.0 10.0 0.00 0.00 0.00 48 1018.6
20260509073040 62 28 5.0 9.0 0.00 0.00 0.00 50 1018.6
20260509071548 62 329 2.0 5.0 0.00 0.00 0.00 51 1018.9
20260509070042 59 0 0.0 4.0 0.00 0.00 0.00 56 1018.9
20260509064542 57 29 1.0 2.0 0.00 0.00 0.00 63 1019.0
20260509063044 54 9 1.0 2.0 0.00 0.00 0.00 64 1019.1
20260509061543 52 21 1.0 3.0 0.00 0.00 0.00 70 1019.2
20260509060104 49 24 1.0 2.0 0.00 0.00 0.00 74 1019.1
20260509054549 46 352 1.0 3.0 0.00 0.00 0.00 79 1019.0
20260509053110 44 9 0.0 1.0 0.00 0.00 0.00 83 1019.0
20260509051553 44 9 1.0 2.0 0.00 0.00 0.00 81 1019.1
20260509050043 45 352 1.0 2.0 0.00 0.00 0.00 81 1018.9
20260509044609 45 9 1.0 3.0 0.00 0.00 0.00 82 1019.0
20260509043117 45 331 1.0 2.0 0.00 0.00 0.00 82 1019.1
20260509041545 46 0 0.0 1.0 0.00 0.00 0.00 80 1019.1
20260509040051 46 319 0.0 2.0 0.00 0.00 0.00 79 1019.2
20260509034549 47 0 0.0 3.0 0.00 0.00 0.00 78 1019.0
20260509033048 47 19 2.0 4.0 0.00 0.00 0.00 79 1019.1
20260509031558 47 9 1.0 4.0 0.00 0.00 0.00 79 1019.2
20260509030108 47 9 2.0 4.0 0.00 0.00 0.00 79 1019.1
20260509024548 48 9 3.0 4.0 0.00 0.00 0.00 77 1019.2
20260509023045 49 17 2.0 4.0 0.00 0.00 0.00 75 1019.2
20260509021547 51 17 2.0 8.0 0.00 0.00 0.00 71 1019.2
20260509020045 50 335 2.0 5.0 0.00 0.00 0.00 74 1019.4
20260509014555 49 0 0.0 2.0 0.00 0.00 0.00 75 1019.6
20260509013044 50 9 1.0 2.0 0.00 0.00 0.00 75 1019.7
20260509011556 50 338 0.0 3.0 0.00 0.00 0.00 74 1020.0
20260509010051 51 0 1.0 5.0 0.00 0.00 0.00 72 1020.0
20260509004555 50 347 0.0 2.0 0.00 0.00 0.00 74 1020.1
20260509003049 49 315 0.0 3.0 0.00 0.00 0.00 77 1020.1
20260509001544 49 334 0.0 3.0 0.00 0.00 0.00 78 1020.4
20260509000043 49 360 1.0 3.0 0.00 0.00 0.00 78 1020.4
20260508234549 49 350 2.0 3.0 0.00 0.00 0.00 77 1020.5
20260508233042 50 336 1.0 4.0 0.00 0.00 0.00 76 1020.5
20260508231548 51 287 3.0 8.0 0.00 0.00 0.00 73 1020.5
20260508230044 47 315 2.0 4.0 0.00 0.00 0.00 82 1020.5
20260508224558 46 346 0.0 2.0 0.00 0.00 0.00 85 1020.1
20260508223051 44 0 0.0 2.0 0.00 0.00 0.00 88 1020.2
20260508221538 45 313 0.0 2.0 0.00 0.00 0.00 87 1020.5
20260508220048 45 352 0.0 2.0 0.00 0.00 0.00 87 1020.3
20260508214544 45 348 1.0 3.0 0.00 0.00 0.00 88 1020.4
20260508213045 44 360 2.0 6.0 0.00 0.00 0.00 87 1020.5
20260508211540 45 350 3.0 7.0 0.00 0.00 0.00 85 1020.5
20260508210050 46 344 3.0 4.0 0.00 0.00 0.00 84 1020.7
20260508204540 47 360 1.0 3.0 0.00 0.00 0.00 83 1020.9
20260508203042 48 0 0.0 4.0 0.00 0.00 0.00 81 1021.0
20260508201544 47 352 2.0 4.0 0.00 0.00 0.00 83 1021.1
20260508200043 47 338 2.0 5.0 0.00 0.00 0.00 85 1021.2
20260508194542 48 328 3.0 4.0 0.00 0.00 0.00 84 1021.2
20260508193040 48 360 4.0 6.0 0.00 0.00 0.00 84 1021.3
20260508191548 48 350 3.0 5.0 0.00 0.00 0.00 83 1021.3
20260508190046 48 9 3.0 4.0 0.00 0.00 0.00 82 1021.4
20260508184548 49 350 3.0 4.0 0.00 0.00 0.00 80 1021.3
20260508183046 49 352 2.0 4.0 0.00 0.00 0.00 80 1021.4
20260508181539 50 351 2.0 5.0 0.00 0.00 0.00 80 1021.6
20260508180049 50 346 1.0 3.0 0.00 0.00 0.00 79 1021.4
20260508174554 51 9 2.0 4.0 0.00 0.00 0.00 78 1021.4
20260508173050 51 343 1.0 4.0 0.00 0.00 0.00 80 1021.3
20260508171548 51 350 1.0 2.0 0.00 0.00 0.00 79 1021.3
20260508170039 52 0 0.0 2.0 0.00 0.00 0.00 76 1021.4
20260508164551 52 0 0.0 3.0 0.00 0.00 0.00 76 1021.3
20260508163048 52 0 0.0 1.0 0.00 0.00 0.00 75 1021.2
20260508161552 54 0 0.0 0.0 0.00 0.00 0.00 71 1021.2
20260508160044 55 0 0.0 0.0 0.00 0.00 0.00 66 1021.1
20260508154607 57 0 0.0 0.0 0.00 0.01 0.00 64 1021.1
20260508153047 58 15 0.0 4.0 0.00 0.01 0.00 58 1021.1
20260508151549 59 13 1.0 7.0 0.00 0.01 0.00 56 1021.1
20260508150056 60 13 3.0 9.0 0.00 0.01 0.00 53 1020.9
20260508144542 60 254 4.0 7.0 0.00 0.02 0.00 50 1021.0
20260508143105 60 221 4.0 8.0 0.00 0.02 0.00 50 1020.9
20260508141546 61 237 4.0 9.0 0.00 0.02 0.00 48 1020.9
20260508134545 61 253 4.0 9.0 0.00 0.02 0.00 49 1021.1
20260508133104 62 263 7.0 11.0 0.00 0.02 0.00 46 1021.1
20260508131548 62 184 2.0 9.0 0.00 0.02 0.00 50 1021.0
20260508130047 62 9 2.0 6.0 0.00 0.02 0.00 48 1021.1
20260508124547 62 18 3.0 5.0 0.00 0.02 0.00 47 1021.1
20260508123052 61 223 0.0 6.0 0.00 0.02 0.00 50 1021.3
20260508121543 61 289 3.0 8.0 0.00 0.02 0.00 49 1021.5
20260508120046 60 0 2.0 10.0 0.00 0.02 0.00 50 1021.5